Regional Weather Roundup
Issued by NWS Little Rock, AR

Home | Current Version | Previous Version | Graphics & Text | Print | Product List | Glossary On
Versions: 1 2 3 4 5 6 7 8 9 10 11 12 13 14 15 16 17 18 19 20 21 22 23 24 25 26 27 28 29 30 31 32 33 34 35 36 37 38 39 40 41 42 43 44 45 46 47 48 49 50
000
ASUS44 KLZK 301205
RWRLZK

WEATHER ROUNDUP FOR ARKANSAS
NATIONAL WEATHER SERVICE LITTLE ROCK AR
700 AM CDT FRI SEP 30 2016

NOTE: "FAIR" INDICATES FEW OR NO CLOUDS BELOW 12,000 FEET WITH NO
SIGNIFICANT WEATHER AND/OR OBSTRUCTIONS TO VISIBILITY.

ARZ001-003-010-029-301300-
NORTHWEST ARKANSAS

CITY           SKY/WX    TMP DP  RH WIND       PRES   REMARKS
FAYETTEVILLE   CLEAR     44  44 100 CALM      30.22R
6HR MIN TEMP:  44; 6HR MAX TEMP:  48;

FORT SMITH     CLEAR     52  48  86 SW7       30.19R
6HR MIN TEMP:  52; 6HR MAX TEMP:  59;

HARRISON       CLEAR     52  48  86 NW5       30.20R
6HR MIN TEMP:  52; 6HR MAX TEMP:  57;

BENTONVILLE    CLEAR     48  43  81 CALM      30.22R
6HR MIN TEMP:  46; 6HR MAX TEMP:  55;

ROGERS         CLEAR     48  46  93 CALM      30.22R
6HR MIN TEMP:  48; 6HR MAX TEMP:  53;

SILOAM SPGS    CLEAR     46  37  71 CALM      30.23R
6HR MIN TEMP:  45; 6HR MAX TEMP:  54;

HIGHFILL       CLEAR     50  47  89 NW3       30.21R
6HR MIN TEMP:  48; 6HR MAX TEMP:  54;

SPRINGDALE     CLEAR     48  46  93 CALM      30.23R
$$

ARZ004-005-016-301300-
NORTH CENTRAL ARKANSAS

CITY           SKY/WX    TMP DP  RH WIND       PRES   REMARKS
BATESVILLE     CLOUDY    54  50  87 W3        30.15R
6HR MIN TEMP:  54; 6HR MAX TEMP:  57;

FLIPPIN        CLEAR     54  46  76 CALM      30.16R
6HR MIN TEMP:  54; 6HR MAX TEMP:  61;

MTN HOME       CLEAR     53  50  89 CALM      30.16S
6HR MIN TEMP:  53; 6HR MAX TEMP:  58;

$$

ARZ040-041-301300-
WEST CENTRAL ARKANSAS

CITY           SKY/WX    TMP DP  RH WIND       PRES   REMARKS
MENA           CLEAR     50  48  93 CALM      30.20R
MOUNT IDA      CLEAR     49  47  93 CALM      30.16R
6HR MIN TEMP:  49; 6HR MAX TEMP:  53;

$$

ARZ009-017-025-026-028-301300-
NORTHEAST ARKANSAS

CITY           SKY/WX    TMP DP  RH WIND       PRES   REMARKS
CORNING          N/A     54  54 100 W6        30.12R
JONESBORO      CLOUDY    61  56  83 NW5       30.11S
6HR MIN TEMP:  60; 6HR MAX TEMP:  64;

NEWPORT        MOCLDY    56  53  90 NW7       30.13S
6HR MIN TEMP:  56; 6HR MAX TEMP:  60;

WALNUT RIDGE   CLEAR     55  52  88 NW6       30.11F
6HR MIN TEMP:  55; 6HR MAX TEMP:  61;

BLYTHEVILLE    CLOUDY    60  57  89 N3        30.10S
6HR MIN TEMP:  57; 6HR MAX TEMP:  61;

$$

ARZ022-023-033-042-044-301300-
CENTRAL ARKANSAS

CITY           SKY/WX    TMP DP  RH WIND       PRES   REMARKS
LITTLE ROCK    CLEAR     62  50  64 NW13      30.15R
6HR MIN TEMP:  61; 6HR MAX TEMP:  67;

N LITTLE ROCK    N/A     57  51  79 N6        30.13R
6HR MIN TEMP:  57; 6HR MAX TEMP:  63;

JACKSONVILLE   CLEAR     57  51  79 W3        30.14R
6HR MIN TEMP:  56; 6HR MAX TEMP:  62;

SEARCY         CLEAR     59  53  80 NW6       30.15R
6HR MIN TEMP:  54; 6HR MAX TEMP:  59;

HOT SPRINGS    CLEAR     54  51  90 CALM      30.16R
6HR MIN TEMP:  54; 6HR MAX TEMP:  58;

RUSSELLVILLE   CLEAR     51  49  92 CALM      30.17R
6HR MIN TEMP:  51; 6HR MAX TEMP:  59;

$$

ARZ036-301300-
EAST ARKANSAS

CITY           SKY/WX    TMP DP  RH WIND       PRES   REMARKS
WEST MEMPHIS   MOCLDY    58  55  90 NW3       30.10R
6HR MIN TEMP:  54; 6HR MAX TEMP:  61;

$$

ARZ050-053-066-070-073-301300-
SOUTHWEST ARKANSAS

CITY           SKY/WX    TMP DP  RH WIND       PRES   REMARKS
ARKADELPHIA    FAIR      49  49 100 CALM      30.17R
6HR MIN TEMP:  49; 6HR MAX TEMP:  54;

TEXARKANA      CLEAR     54  50  86 CALM      30.18R
6HR MIN TEMP:  53; 6HR MAX TEMP:  60;

EL DORADO      CLEAR     51  50  96 CALM      30.17R
6HR MIN TEMP:  51; 6HR MAX TEMP:  55;

DE QUEEN       CLEAR     50  50 100 CALM      30.17R FOG
6HR MIN TEMP:  49; 6HR MAX TEMP:  53;

$$

ARZ056-057-069-301300-
SOUTHEAST ARKANSAS

CITY           SKY/WX    TMP DP  RH WIND       PRES   REMARKS
PINE BLUFF     CLEAR     55  52  89 CALM      30.15R
6HR MIN TEMP:  53; 6HR MAX TEMP:  61;

STUTTGART      CLEAR     55  46  71 NW8       30.14R
6HR MIN TEMP:  55; 6HR MAX TEMP:  61;

MONTICELLO     CLEAR     53  52  96 W3        30.14R
6HR MIN TEMP:  53; 6HR MAX TEMP:  61;


$$





USA.gov is the U.S. government's official web portal to all federal, state and local government web resources and services.